Regional Weather Roundup
Issued by NWS Little Rock, AR

Home | Current Version | Previous Version | Graphics & Text | Print | Product List | Glossary On
Versions: 1 2 3 4 5 6 7 8 9 10 11 12 13 14 15 16 17 18 19 20 21 22 23 24 25 26 27 28 29 30 31 32 33 34 35 36 37 38 39 40 41 42 43 44 45 46 47 48 49 50
000
ASUS44 KLZK 240605
RWRLZK

WEATHER ROUNDUP FOR ARKANSAS
NATIONAL WEATHER SERVICE LITTLE ROCK AR
100 AM CDT WED AUG 24 2016

NOTE: "FAIR" INDICATES FEW OR NO CLOUDS BELOW 12,000 FEET WITH NO
SIGNIFICANT WEATHER AND/OR OBSTRUCTIONS TO VISIBILITY.

ARZ001-003-010-029-240700-
NORTHWEST ARKANSAS

CITY           SKY/WX    TMP DP  RH WIND       PRES   REMARKS
FAYETTEVILLE   PTCLDY    75  71  87 S10       30.09F
6HR MIN TEMP:  75; 6HR MAX TEMP:  82;

FORT SMITH     PTCLDY    78  70  76 NE3       30.08R
6HR MIN TEMP:  78; 6HR MAX TEMP:  87;

HARRISON       CLEAR     75  71  87 S8        30.13S
6HR MIN TEMP:  74; 6HR MAX TEMP:  81;

BENTONVILLE    PTCLDY    77  66  69 S9        30.08F
6HR MIN TEMP:  77; 6HR MAX TEMP:  82;

ROGERS         PTCLDY    76  70  82 S15       30.09F
6HR MIN TEMP:  76; 6HR MAX TEMP:  82;

SILOAM SPGS    PTCLDY    77  64  65 S13       30.08F
6HR MIN TEMP:  77; 6HR MAX TEMP:  84;

HIGHFILL       PTCLDY    77  72  84 S15       30.07F
6HR MIN TEMP:  77; 6HR MAX TEMP:  84;

$$

ARZ004-005-016-240700-
NORTH CENTRAL ARKANSAS

CITY           SKY/WX    TMP DP  RH WIND       PRES   REMARKS
BATESVILLE     CLEAR     79  73  83 SE5       30.12S
6HR MIN TEMP:  79; 6HR MAX TEMP:  84;

FLIPPIN        CLEAR     75  70  83 S3        30.09R
6HR MIN TEMP:  75; 6HR MAX TEMP:  82;

MTN HOME       CLEAR     73  71  93 CALM      30.12R
6HR MIN TEMP:  73; 6HR MAX TEMP:  80;

$$

ARZ040-041-240700-
WEST CENTRAL ARKANSAS

CITY           SKY/WX    TMP DP  RH WIND       PRES   REMARKS
MENA           CLEAR     82  79  89 S5        30.13R HX  93
MOUNT IDA      CLEAR     82  74  76 VRB6      30.10S HX  88
6HR MIN TEMP:  75; 6HR MAX TEMP:  85;

$$

ARZ009-017-025-026-028-240700-
NORTHEAST ARKANSAS

CITY           SKY/WX    TMP DP  RH WIND       PRES   REMARKS
CORNING          N/A     75  75 100 S3        30.11S
JONESBORO      CLEAR     74  72  93 CALM      30.12R
6HR MIN TEMP:  74; 6HR MAX TEMP:  84;

NEWPORT        CLEAR     76  74  93 S7        30.11S
6HR MIN TEMP:  76; 6HR MAX TEMP:  85;

WALNUT RIDGE   PTCLDY    75  72  88 S8        30.10S
6HR MIN TEMP:  75; 6HR MAX TEMP:  82;

BLYTHEVILLE    PTCLDY    77  75  93 S6        30.13S
6HR MIN TEMP:  77; 6HR MAX TEMP:  83;

$$

ARZ022-023-033-042-044-240700-
CENTRAL ARKANSAS

CITY           SKY/WX    TMP DP  RH WIND       PRES   REMARKS
LITTLE ROCK    CLEAR     82  74  76 S13       30.11F HX  88
6HR MIN TEMP:  82; 6HR MAX TEMP:  89;

SEARCY         CLOUDY    77  75  93 SW5       30.13S
6HR MIN TEMP:  76; 6HR MAX TEMP:  85;

HOT SPRINGS    CLEAR     82  74  76 S9        30.12F HX  88
6HR MIN TEMP:  78; 6HR MAX TEMP:  86;

RUSSELLVILLE   CLOUDY    76  74  93 CALM      30.10S
6HR MIN TEMP:  76; 6HR MAX TEMP:  85;

$$

ARZ036-240700-
EAST ARKANSAS

CITY           SKY/WX    TMP DP  RH WIND       PRES   REMARKS
WEST MEMPHIS   CLEAR     76  73  91 S7        30.12R
6HR MIN TEMP:  73; 6HR MAX TEMP:  83;

$$

ARZ050-053-066-070-073-240700-
SOUTHWEST ARKANSAS

CITY           SKY/WX    TMP DP  RH WIND       PRES   REMARKS
ARKADELPHIA    FAIR      78  76  93 CALM      30.12F
6HR MIN TEMP:  77; 6HR MAX TEMP:  87;

CAMDEN         CLEAR     77  73  88 CALM      30.13S
TEXARKANA      CLEAR     79  76  90 S9        30.12F
6HR MIN TEMP:  79; 6HR MAX TEMP:  86;

EL DORADO      CLEAR     77  76  96 CALM      30.14F
6HR MIN TEMP:  77; 6HR MAX TEMP:  88;

DE QUEEN       CLEAR     79  76  90 S5        30.09S
6HR MIN TEMP:  79; 6HR MAX TEMP:  86;

$$

ARZ056-057-069-240700-
SOUTHEAST ARKANSAS

CITY           SKY/WX    TMP DP  RH WIND       PRES   REMARKS
PINE BLUFF     CLEAR     77  74  90 S5        30.13F
6HR MIN TEMP:  76; 6HR MAX TEMP:  87;

STUTTGART      CLEAR     77  72  83 S7        30.13S
6HR MIN TEMP:  77; 6HR MAX TEMP:  88;

MONTICELLO     CLEAR     81  75  82 S6        30.14S HX  87
6HR MIN TEMP:  81; 6HR MAX TEMP:  91;


$$





USA.gov is the U.S. government's official web portal to all federal, state and local government web resources and services.